Flag for Switzerland Weather past 2 weeks in Kreuzlingen, Thurgau, Switzerland

43 °F


Feels Like: 41 °F
Forecast: 39 / 46 °F
Wind: 3 mph from West

Location: Konstanz

Current Time: Oct 14, 2015 at 2:01:32 AM

Latest Report: Oct 14, 2015 at 1:00 AM

Visibility: 3 mi

Pressure: 30.03 "Hg

Humidity: 86%

Dew point: 39 °F

Location of KreuzlingenLocation

Historic Weather in Kreuzlingen — Graph


Kreuzlingen temperature yesterday

Maximum temperature yesterday: 52 °F (at 2:00 PM)
Minimum temperature yesterday: 44 °F (at 11:00 PM)
Average temperature yesterday: 48 °F

Past Weeks' High & Low Weather Summary

High67 °F (Oct 3, 5:00 PM)99% (Oct 6, 8:00 AM)30.39 "Hg (Oct 6, 8:00 AM)
Low41 °F (Oct 1, 8:00 AM)40% (Sep 29, 3:00 PM)29.71 "Hg (Oct 6, 1:00 PM)
Average54 °F75%30.06 "Hg
* Reported Sep 29 2:00 AM — Oct 13 11:00 PM, Kreuzlingen, Weather by CustomWeather, © 2015

Note: Actual official high and low records may vary slightly from our data, if they occured in-between our weather recording intervals... More about our weather records


Kreuzlingen weather history for previous 24 hours

Time TempWeatherWind HumidityBarometerVisibility
11:00 PM
Tue, Oct 13
44 °FLight rain. Overcast.5 mph92%30.02 "Hg2 mi
10:00 PM45 °FRain. Overcast.5 mph94%30.00 "Hg2 mi
9:00 PM47 °FRain. Low clouds.5 mph94%29.96 "Hg5 mi
8:00 PM49 °FLight rain. Low clouds.3 mph93%29.94 "Hg5 mi
7:00 PM49 °FLight rain. Low clouds.2 mph95%29.94 "Hg2 mi
6:00 PM50 °FLight rain. Low clouds.1 mph93%29.92 "Hg2 mi
5:00 PM50 °FLight rain. Overcast.1 mph92%29.92 "Hg2 mi
4:00 PM51 °FLight rain. Overcast.1 mph88%29.91 "Hg3 mi
3:00 PM51 °FLight rain. Overcast.1 mph82%29.91 "Hg5 mi
2:00 PM52 °FOvercast.1 mph80%29.92 "Hg5 mi
1:00 PM51 °FOvercast.1 mph80%29.92 "Hg6 mi
12:00 PM50 °FLow clouds.1 mph81%29.93 "Hg6 mi
11:00 AM49 °FLight rain. Low clouds.1 mph83%29.93 "Hg6 mi
10:00 AM47 °FLow clouds.1 mph87%29.95 "Hg6 mi
9:00 AM46 °FFog.1 mph90%29.95 "Hg4 mi
8:00 AM45 °FFog.1 mph92%29.94 "Hg4 mi
7:00 AM45 °FFog.1 mph93%29.95 "Hg4 mi
4:00 AM45 °FPassing clouds.1 mph89%29.96 "Hg5 mi
3:00 AM45 °FLow clouds.1 mph89%29.98 "Hg5 mi
2:00 AM45 °FFog.1 mph90%29.98 "Hg4 mi
Weather by CustomWeather, © 2015

See weather overviewHow to use our weather pages